This is the latest recevied weather packets stored in our database for station/object W1ERB-13. If no packets are shown the sender has not sent any weather packets the latest 10 day(s).
| Time | Temp. | Humidity | Pressure | Rain* | Wind** | Luminosity | Snow |
|---|---|---|---|---|---|---|---|
| 1777185271 | 5° C | 99% | 1018.1 hPa | 0 mm | - | 0 W/m² | - |
| 1777184967 | 5° C | 99% | 1017.8 hPa | 0 mm | - | 0 W/m² | - |
| 1777184661 | 5° C | 99% | 1017.9 hPa | 0 mm | - | 0 W/m² | - |
| 1777184356 | 5° C | 99% | 1017.9 hPa | 0 mm | - | 0 W/m² | - |
| 1777184052 | 5° C | 99% | 1018.1 hPa | 0 mm | - | 0 W/m² | - |
| 1777183747 | 5° C | 99% | 1018.3 hPa | 0 mm | - | 0 W/m² | - |
| 1777183444 | 5° C | 99% | 1018.2 hPa | 0 mm | - | 0 W/m² | - |
| 1777183143 | 5° C | 99% | 1018.4 hPa | 1.78 mm | - | 0 W/m² | - |
| 1777182840 | 5° C | 99% | 1018.1 hPa | 1.78 mm | - | 0 W/m² | - |
| 1777182536 | 4.44° C | 99% | 1018.4 hPa | 1.78 mm | - | 0 W/m² | - |
| 1777182231 | 4.44° C | 99% | 1018.4 hPa | 0 mm | - | 0 W/m² | - |
| 1777181929 | 5° C | 99% | 1018.6 hPa | 0 mm | - | 0 W/m² | - |
| 1777181624 | 5° C | 99% | 1018.5 hPa | 0 mm | - | 0 W/m² | - |
| 1777181320 | 5° C | 99% | 1018.7 hPa | 1.27 mm | - | 0 W/m² | - |
| 1777181015 | 5° C | 99% | 1018.7 hPa | 1.27 mm | - | 0 W/m² | - |
| 1777180711 | 5° C | 99% | 1018.6 hPa | 1.78 mm | - | 0 W/m² | - |
| 1777180407 | 5° C | 99% | 1018.7 hPa | 1.78 mm | - | 0 W/m² | - |
| 1777180104 | 5° C | 99% | 1018.6 hPa | 1.27 mm | - | 0 W/m² | - |
| 1777179799 | 5° C | 99% | 1018.4 hPa | 1.27 mm | - | 0 W/m² | - |
| 1777179495 | 5° C | 99% | 1018.7 hPa | 1.78 mm | - | 0 W/m² | - |
| 1777179194 | 5° C | 99% | 1018.8 hPa | 3.05 mm | - | 0 W/m² | - |
| 1777178890 | 5° C | 99% | 1018.7 hPa | 3.05 mm | - | 0 W/m² | - |
| 1777178588 | 5° C | 99% | 1018.9 hPa | 3.05 mm | - | 0 W/m² | - |
| 1777178283 | 5° C | 99% | 1018.8 hPa | 1.27 mm | - | 0 W/m² | - |
| 1777177982 | 5° C | 99% | 1018.9 hPa | 1.78 mm | - | 0 W/m² | - |
* Rain latest hour (hover to see other rain measurements)
** Current wind speed in m/s (hover to see current wind gust speed)